Time,TemperatureF,DewpointF,PressureIn,WindDirection,WindDirectionDegrees,WindSpeedMPH,WindSpeedGustMPH,Humidity,HourlyPrecipIn,Conditions,Clouds,dailyrainin,SoftwareType,DateUTC
2013-05-20 00:00:00,61.2,60.0,30.10,WNW,286,0.0,1.0,96,0.00,,,0.00,weatherlink.com 1.10,2013-05-20 04:00:00,
2013-05-20 00:15:00,60.6,60.0,30.10,WNW,285,0.0,1.0,96,0.00,,,0.00,weatherlink.com 1.10,2013-05-20 04:15:00,
2013-05-20 00:30:00,60.0,59.0,30.09,WNW,285,0.0,0.0,96,0.00,,,0.00,weatherlink.com 1.10,2013-05-20 04:30:00,
2013-05-20 00:45:00,59.9,59.0,30.09,WNW,285,0.0,0.0,97,0.00,,,0.00,weatherlink.com 1.10,2013-05-20 04:45:00,
2013-05-20 01:00:00,60.0,59.0,30.09,WNW,285,0.0,1.0,97,0.00,,,0.00,weatherlink.com 1.10,2013-05-20 05:00:00,
2013-05-20 01:15:00,60.0,59.0,30.09,WNW,285,0.0,0.0,97,0.00,,,0.00,weatherlink.com 1.10,2013-05-20 05:15:00,
2013-05-20 01:30:00,60.2,59.0,30.09,WNW,286,0.0,1.0,97,0.00,,,0.00,weatherlink.com 1.10,2013-05-20 05:30:00,
2013-05-20 01:45:00,60.2,59.0,30.09,WNW,285,0.0,0.0,97,0.00,,,0.00,weatherlink.com 1.10,2013-05-20 05:45:00,
2013-05-20 02:00:00,60.4,60.0,30.09,WNW,285,0.0,1.0,97,0.00,,,0.00,weatherlink.com 1.10,2013-05-20 06:00:00,
2013-05-20 02:15:00,60.6,60.0,30.09,WNW,285,0.0,1.0,97,0.00,,,0.00,weatherlink.com 1.10,2013-05-20 06:15:00,
2013-05-20 02:30:00,60.2,59.0,30.09,WNW,285,0.0,0.0,97,0.00,,,0.00,weatherlink.com 1.10,2013-05-20 06:30:00,
2013-05-20 02:45:00,60.2,59.0,30.09,WNW,285,0.0,0.0,97,0.00,,,0.00,weatherlink.com 1.10,2013-05-20 06:45:00,
2013-05-20 03:00:00,60.4,60.0,30.09,WNW,285,0.0,0.0,97,0.00,,,0.00,weatherlink.com 1.10,2013-05-20 07:00:00,
2013-05-20 03:15:00,60.5,60.0,30.09,WNW,285,0.0,0.0,97,0.00,,,0.00,weatherlink.com 1.10,2013-05-20 07:15:00,
2013-05-20 03:30:00,60.5,60.0,30.09,WNW,285,0.0,0.0,97,0.00,,,0.00,weatherlink.com 1.10,2013-05-20 07:30:00,
2013-05-20 03:45:00,60.5,60.0,30.09,WNW,285,0.0,0.0,97,0.00,,,0.00,weatherlink.com 1.10,2013-05-20 07:45:00,
2013-05-20 04:00:00,60.5,60.0,30.08,WNW,285,0.0,0.0,97,0.00,,,0.00,weatherlink.com 1.10,2013-05-20 08:00:00,
2013-05-20 04:15:00,60.5,60.0,30.09,WNW,285,0.0,0.0,97,0.00,,,0.00,weatherlink.com 1.10,2013-05-20 08:15:00,
2013-05-20 04:30:00,60.4,60.0,30.09,WNW,285,0.0,3.0,97,0.00,,,0.00,weatherlink.com 1.10,2013-05-20 08:30:00,
2013-05-20 04:45:00,60.4,59.0,30.08,WNW,285,0.0,1.0,96,0.00,,,0.00,weatherlink.com 1.10,2013-05-20 08:45:00,
2013-05-20 05:00:00,60.3,59.0,30.09,WNW,286,0.0,2.0,96,0.00,,,0.00,weatherlink.com 1.10,2013-05-20 09:00:00,
2013-05-20 05:15:00,60.2,59.0,30.08,WNW,285,0.0,3.0,95,0.00,,,0.00,weatherlink.com 1.10,2013-05-20 09:15:00,
2013-05-20 05:30:00,60.2,59.0,30.08,WNW,285,0.0,3.0,94,0.00,,,0.00,weatherlink.com 1.10,2013-05-20 09:30:00,
2013-05-20 05:45:00,60.2,59.0,30.08,WNW,285,0.0,3.0,94,0.00,,,0.00,weatherlink.com 1.10,2013-05-20 09:45:00,
2013-05-20 06:00:00,59.8,58.0,30.08,WNW,285,1.0,3.0,93,0.00,,,0.00,weatherlink.com 1.10,2013-05-20 10:00:00,
2013-05-20 06:16:00,59.4,57.0,30.09,WNW,286,0.0,4.0,93,0.00,,,0.00,weatherlink.com 1.10,2013-05-20 10:16:00,
2013-05-20 06:31:00,59.5,58.0,30.07,WNW,285,1.0,4.0,93,0.00,,,0.00,weatherlink.com 1.10,2013-05-20 10:31:00,
2013-05-20 06:46:00,59.1,58.0,30.09,WNW,285,1.0,6.0,95,0.00,,,0.00,weatherlink.com 1.10,2013-05-20 10:46:00,
2013-05-20 07:01:00,59.2,58.0,30.09,WNW,285,1.0,3.0,94,0.00,,,0.00,weatherlink.com 1.10,2013-05-20 11:01:00,
2013-05-20 07:16:00,59.3,58.0,30.10,WNW,285,0.0,2.0,94,0.00,,,0.00,weatherlink.com 1.10,2013-05-20 11:16:00,
2013-05-20 07:31:00,60.2,58.0,30.10,WNW,285,3.0,6.0,93,0.00,,,0.00,weatherlink.com 1.10,2013-05-20 11:31:00,
2013-05-20 07:46:00,60.5,58.0,30.11,WNW,285,2.0,3.0,92,0.00,,,0.00,weatherlink.com 1.10,2013-05-20 11:46:00,
2013-05-20 08:01:00,60.8,59.0,30.10,WNW,285,0.0,4.0,92,0.00,,,0.00,weatherlink.com 1.10,2013-05-20 12:01:00,
2013-05-20 08:16:00,63.4,60.0,30.11,WNW,285,0.0,4.0,89,0.00,,,0.00,weatherlink.com 1.10,2013-05-20 12:16:00,
2013-05-20 08:31:00,66.6,61.0,30.11,WNW,285,0.0,1.0,83,0.00,,,0.00,weatherlink.com 1.10,2013-05-20 12:31:00,
2013-05-20 08:46:00,66.6,62.0,30.12,WNW,285,0.0,1.0,84,0.00,,,0.00,weatherlink.com 1.10,2013-05-20 12:46:00,
2013-05-20 09:01:00,67.7,62.0,30.12,WNW,285,0.0,2.0,82,0.00,,,0.00,weatherlink.com 1.10,2013-05-20 13:01:00,
2013-05-20 09:16:00,69.6,64.0,30.13,WNW,285,0.0,1.0,81,0.00,,,0.00,weatherlink.com 1.10,2013-05-20 13:16:00,
2013-05-20 09:31:00,68.6,63.0,30.13,WNW,285,2.0,-999.0,83,-99.99,,,0.00,weatherlink.com 1.10,2013-05-20 13:31:00,
2013-05-20 09:46:00,67.7,62.0,30.13,WNW,285,1.0,3.0,83,0.00,,,0.00,weatherlink.com 1.10,2013-05-20 13:46:00,
2013-05-20 10:16:00,68.7,64.0,30.13,WNW,285,0.0,3.0,84,0.00,,,0.00,weatherlink.com 1.10,2013-05-20 14:16:00,
2013-05-20 10:31:00,69.9,64.0,30.14,WNW,285,1.0,4.0,82,0.00,,,0.00,weatherlink.com 1.10,2013-05-20 14:31:00,
2013-05-20 10:46:00,68.1,62.0,30.14,WNW,285,1.0,4.0,82,0.00,,,0.00,weatherlink.com 1.10,2013-05-20 14:46:00,
2013-05-20 11:01:00,69.1,64.0,30.15,WNW,285,3.0,5.0,84,0.00,,,0.00,weatherlink.com 1.10,2013-05-20 15:01:00,
2013-05-20 11:16:00,70.1,66.0,30.15,WNW,285,3.0,4.0,86,0.00,,,0.00,weatherlink.com 1.10,2013-05-20 15:16:00,
2013-05-20 11:31:00,71.1,65.0,30.14,WNW,285,2.0,4.0,80,0.00,,,0.00,weatherlink.com 1.10,2013-05-20 15:31:00,
2013-05-20 11:46:00,70.2,66.0,30.14,WNW,285,1.0,4.0,85,0.00,,,0.00,weatherlink.com 1.10,2013-05-20 15:46:00,
2013-05-20 12:01:00,70.6,65.0,30.15,WNW,285,2.0,5.0,81,0.00,,,0.00,weatherlink.com 1.10,2013-05-20 16:01:00,
2013-05-20 12:16:00,71.7,64.0,30.15,WNW,285,1.0,5.0,77,0.00,,,0.00,weatherlink.com 1.10,2013-05-20 16:16:00,
2013-05-20 12:31:00,71.6,64.0,30.14,WNW,285,1.0,5.0,77,0.00,,,0.00,weatherlink.com 1.10,2013-05-20 16:31:00,
2013-05-20 12:46:00,71.3,64.0,30.13,WNW,285,2.0,6.0,78,0.00,,,0.00,weatherlink.com 1.10,2013-05-20 16:46:00,
2013-05-20 13:01:00,74.2,67.0,30.13,WNW,285,1.0,5.0,78,0.00,,,0.00,weatherlink.com 1.10,2013-05-20 17:01:00,
2013-05-20 13:16:00,73.7,66.0,30.13,WNW,285,0.0,3.0,77,0.00,,,0.00,weatherlink.com 1.10,2013-05-20 17:16:00,
2013-05-20 13:31:00,73.8,65.0,30.13,WNW,285,0.0,4.0,74,0.00,,,0.00,weatherlink.com 1.10,2013-05-20 17:31:00,
2013-05-20 13:46:00,75.7,66.0,30.12,WNW,285,2.0,4.0,71,0.00,,,0.00,weatherlink.com 1.10,2013-05-20 17:46:00,
2013-05-20 14:01:00,75.2,65.0,30.12,WNW,285,0.0,4.0,71,0.00,,,0.00,weatherlink.com 1.10,2013-05-20 18:01:00,
2013-05-20 14:16:00,76.2,67.0,30.11,WNW,285,2.0,4.0,72,0.00,,,0.00,weatherlink.com 1.10,2013-05-20 18:16:00,
2013-05-20 14:31:00,75.6,66.0,30.11,WNW,285,1.0,4.0,71,0.00,,,0.00,weatherlink.com 1.10,2013-05-20 18:31:00,
2013-05-20 14:46:00,75.0,67.0,30.11,WNW,285,3.0,6.0,76,0.00,,,0.00,weatherlink.com 1.10,2013-05-20 18:46:00,
2013-05-20 15:02:00,74.2,67.0,30.11,WNW,285,0.0,4.0,78,0.00,,,0.00,weatherlink.com 1.10,2013-05-20 19:02:00,
2013-05-20 15:17:00,76.1,68.0,30.10,WNW,285,2.0,5.0,76,0.00,,,0.00,weatherlink.com 1.10,2013-05-20 19:17:00,
2013-05-20 15:32:00,73.9,66.0,30.10,WNW,285,1.0,5.0,76,0.00,,,0.00,weatherlink.com 1.10,2013-05-20 19:32:00,
2013-05-20 15:47:00,74.8,66.0,30.09,WNW,285,0.0,3.0,74,0.00,,,0.00,weatherlink.com 1.10,2013-05-20 19:47:00,
2013-05-20 16:02:00,75.0,67.0,30.09,WNW,285,0.0,1.0,77,0.00,,,0.00,weatherlink.com 1.10,2013-05-20 20:02:00,
2013-05-20 16:17:00,73.7,66.0,30.09,WNW,285,0.0,2.0,77,0.00,,,0.00,weatherlink.com 1.10,2013-05-20 20:17:00,
2013-05-20 16:32:00,72.9,66.0,30.09,WNW,285,0.0,4.0,78,0.00,,,0.00,weatherlink.com 1.10,2013-05-20 20:32:00,
2013-05-20 16:47:00,72.2,65.0,30.10,WNW,285,0.0,2.0,79,0.00,,,0.00,weatherlink.com 1.10,2013-05-20 20:47:00,
2013-05-20 17:02:00,71.6,66.0,30.09,WNW,285,0.0,1.0,81,0.00,,,0.00,weatherlink.com 1.10,2013-05-20 21:02:00,
2013-05-20 17:17:00,71.1,65.0,30.09,WNW,285,0.0,2.0,82,0.00,,,0.00,weatherlink.com 1.10,2013-05-20 21:17:00,
2013-05-20 17:32:00,71.0,65.0,30.09,WNW,285,0.0,2.0,81,0.00,,,0.00,weatherlink.com 1.10,2013-05-20 21:32:00,
2013-05-20 17:47:00,70.5,65.0,30.09,WNW,285,0.0,2.0,82,0.00,,,0.00,weatherlink.com 1.10,2013-05-20 21:47:00,
2013-05-20 18:02:00,70.4,65.0,30.09,WNW,285,0.0,1.0,83,0.00,,,0.00,weatherlink.com 1.10,2013-05-20 22:02:00,
2013-05-20 18:17:00,70.0,65.0,30.09,WNW,285,1.0,3.0,83,0.00,,,0.00,weatherlink.com 1.10,2013-05-20 22:17:00,
2013-05-20 18:32:00,70.0,65.0,30.09,WNW,285,0.0,2.0,85,0.00,,,0.00,weatherlink.com 1.10,2013-05-20 22:32:00,
2013-05-20 18:47:00,69.8,65.0,30.08,WNW,285,0.0,2.0,85,0.00,,,0.00,weatherlink.com 1.10,2013-05-20 22:47:00,
2013-05-20 19:02:00,69.9,65.0,30.07,WNW,285,0.0,3.0,85,0.00,,,0.00,weatherlink.com 1.10,2013-05-20 23:02:00,
2013-05-20 19:18:00,69.4,65.0,30.07,WNW,285,2.0,6.0,85,0.00,,,0.00,weatherlink.com 1.10,2013-05-20 23:18:00,
2013-05-20 19:32:00,68.7,64.0,30.06,WNW,285,2.0,6.0,84,0.00,,,0.00,weatherlink.com 1.10,2013-05-20 23:32:00,
2013-05-20 19:47:00,68.2,63.0,30.07,WNW,286,2.0,7.0,83,0.00,,,0.00,weatherlink.com 1.10,2013-05-20 23:47:00,
2013-05-20 20:02:00,67.7,62.0,30.07,WNW,285,0.0,4.0,83,0.00,,,0.00,weatherlink.com 1.10,2013-05-21 00:02:00,
2013-05-20 20:17:00,67.1,63.0,30.07,WNW,285,2.0,6.0,85,0.00,,,0.00,weatherlink.com 1.10,2013-05-21 00:17:00,
2013-05-20 20:32:00,66.6,62.0,30.08,WNW,285,1.0,6.0,86,0.00,,,0.00,weatherlink.com 1.10,2013-05-21 00:32:00,
2013-05-20 20:47:00,66.0,62.0,30.09,WNW,285,0.0,5.0,88,0.00,,,0.00,weatherlink.com 1.10,2013-05-21 00:47:00,
2013-05-20 21:02:00,65.9,62.0,30.09,WNW,285,1.0,5.0,88,0.00,,,0.00,weatherlink.com 1.10,2013-05-21 01:02:00,
2013-05-20 21:17:00,65.5,62.0,30.08,WNW,285,1.0,8.0,89,0.00,,,0.00,weatherlink.com 1.10,2013-05-21 01:17:00,
2013-05-20 21:32:00,65.3,62.0,30.09,WNW,285,1.0,5.0,89,0.00,,,0.00,weatherlink.com 1.10,2013-05-21 01:32:00,
2013-05-20 21:47:00,65.2,62.0,30.09,WNW,285,0.0,4.0,89,0.00,,,0.00,weatherlink.com 1.10,2013-05-21 01:47:00,
2013-05-20 22:02:00,65.0,62.0,30.09,WNW,285,1.0,3.0,89,0.00,,,0.00,weatherlink.com 1.10,2013-05-21 02:02:00,
2013-05-20 22:17:00,65.0,62.0,30.10,WNW,285,1.0,3.0,89,0.00,,,0.00,weatherlink.com 1.10,2013-05-21 02:17:00,
2013-05-20 22:32:00,64.7,62.0,30.10,WNW,285,0.0,2.0,90,0.00,,,0.00,weatherlink.com 1.10,2013-05-21 02:32:00,
2013-05-20 22:47:00,64.0,61.0,30.10,WNW,285,0.0,4.0,91,0.00,,,0.00,weatherlink.com 1.10,2013-05-21 02:47:00,
2013-05-20 23:02:00,64.5,62.0,30.10,WNW,285,0.0,3.0,90,0.00,,,0.00,weatherlink.com 1.10,2013-05-21 03:02:00,
2013-05-20 23:17:00,64.2,61.0,30.10,WNW,286,0.0,1.0,90,0.00,,,0.00,weatherlink.com 1.10,2013-05-21 03:17:00,
2013-05-20 23:32:00,64.0,61.0,30.09,WNW,285,0.0,1.0,91,0.00,,,0.00,weatherlink.com 1.10,2013-05-21 03:32:00,
2013-05-20 23:47:00,64.2,62.0,30.09,WNW,285,0.0,2.0,91,0.00,,,0.00,weatherlink.com 1.10,2013-05-21 03:47:00,